{"data":{"norad_id":48400,"epoch":"2026-09-20T04:39:05.313600Z","epoch_age_seconds":60100,"freshness":"FRESH","line1":"1 48400U 21038AZ  26263.19381150  .00003346  00000+0  11955-3 0  9996","line2":"2 48400  53.1606 147.6733 0001324  99.7194 260.3956 15.31701388297241","mean_motion":15.31701388,"eccentricity":0.0001324,"inclination_deg":53.1606,"raan_deg":147.6733,"arg_perigee_deg":99.7194,"mean_anomaly_deg":260.3956,"bstar":0.00011955,"rev_number":29724,"period_min":94.013102768044,"perigee_km":469.82906690664,"apogee_km":471.64264843935,"semimajor_km":6848.872857673,"source":"CELESTRAK","updated_at":"2026-09-20T09:00:38.947161Z"}}